Massena, NY

11:37 AM EST on December 09, 2019 (GMT -0500)
Massena International-Richards

Weather History for KMSS - October, 2019

Change the Weather History Date:

Sunday, October 27, 2019

  Actual Average Record
Temperature  
Mean Temperature 48 °F 42 °F  
Max Temperature 55 °F 52 °F 72 °F (1989)
Min Temperature 41 °F 33 °F 18 °F (1974)
Degree Days  
Heating Degree Days 17 23  
Month to date heating degree days 445 489  
Since 1 July heating degree days 660 789  
Cooling Degree Days 0 0  
Month to date cooling degree days 0 0  
Year to date cooling degree days 398 361  
Moisture  
Dew Point 46 °F    
Average Humidity 83    
Maximum Humidity 96    
Minimum Humidity 70    
Precipitation  
Precipitation 1.53 in 0.11 in 1.57 in (1981)
Month to date precipitation 5.55 2.90  
Year to date precipitation 29.26 29.09  
Sea Level Pressure  
Sea Level Pressure 29.83 in    
Wind  
Wind Speed 9 mph (ENE)    
Max Wind Speed 16 mph    
Max Gust Speed 20 mph    
Visibility 6 miles    
Events Rain    
T = Trace of Precipitation, MM = Missing Value Source: NWS Daily Summary

Daily Weather History Graph

Daily Weather History Graph

Search for Another Location

Airport or City:

Astronomy

Oct. 27, 2019 Rise Set
Actual Time 7:30 AM EDT 5:55 PM EDT
Civil Twilight 7:00 AM EDT 6:25 PM EDT
Nautical Twilight 6:25 AM EDT 6:59 PM EDT
Astronomical Twilight 5:51 AM EDT 7:33 PM EDT
Moon 6:31 AM EDT (10/27) 6:06 PM EDT (10/27)
Length of Visible Light 11h 25m
Length of Day
10h 24m
Waning Crescent, 0% of the Moon is Illuminated
Oct 27
Waning Crescent
Oct 27
New
Nov 4
First Quarter
Nov 12
Full
Nov 19
Last Quarter

Hourly Weather History & Observations

Time (EDT) Temp. Windchill Dew Point Humidity Pressure Visibility Wind Dir Wind Speed Gust Speed Precip Events Conditions
12:53 AM 41.0 °F 37.1 °F 35.1 °F 79% 30.18 in 10.0 mi NE 5.8 mph - N/A   Clear
1:53 AM 43.0 °F 39.5 °F 35.1 °F 74% 30.16 in 10.0 mi ENE 5.8 mph - N/A   Clear
2:53 AM 44.1 °F 39.5 °F 35.1 °F 71% 30.13 in 10.0 mi ENE 8.1 mph - N/A   Scattered Clouds
3:53 AM 45.0 °F 40.1 °F 36.0 °F 71% 30.09 in 10.0 mi ENE 9.2 mph - N/A   Overcast
4:53 AM 44.1 °F 39.0 °F 37.9 °F 79% 30.05 in 10.0 mi ENE 9.2 mph - 0.02 in Rain Light Rain
5:53 AM 43.0 °F 38.2 °F 39.0 °F 86% 30.01 in 7.0 mi ENE 8.1 mph - 0.01 in Rain Light Rain
6:53 AM 44.1 °F 39.0 °F 41.0 °F 89% 29.99 in 4.0 mi NE 9.2 mph - 0.15 in Rain Heavy Rain
7:53 AM 45.0 °F 39.3 °F 42.1 °F 90% 29.97 in 3.0 mi ENE 11.5 mph - 0.30 in Rain Heavy Rain
8:28 AM 45.0 °F 39.7 °F 42.1 °F 90% 29.95 in 4.0 mi ENE 10.4 mph - 0.20 in Rain Heavy Rain
8:53 AM 45.0 °F 39.7 °F 43.0 °F 93% 29.95 in 3.0 mi ENE 10.4 mph - 0.35 in Rain Heavy Rain
9:01 AM 45.0 °F 39.3 °F 43.0 °F 93% 29.92 in 3.0 mi ENE 11.5 mph - 0.04 in Rain Heavy Rain
9:18 AM 45.0 °F 38.5 °F 43.0 °F 93% 29.90 in 2.0 mi ENE 13.8 mph - 0.14 in Rain Heavy Rain
9:25 AM 46.0 °F 40.6 °F 43.0 °F 89% 29.90 in 2.5 mi ENE 11.5 mph - 0.17 in Rain Heavy Rain
9:34 AM 46.0 °F 40.2 °F 43.0 °F 89% 29.89 in 2.5 mi ENE 12.7 mph - 0.23 in Rain Heavy Rain
9:48 AM 46.4 °F 40.1 °F 42.8 °F 87% 29.87 in 3.0 mi ENE 15.0 mph - 0.29 in Rain Heavy Rain
9:53 AM 46.0 °F 39.6 °F 43.0 °F 89% 29.88 in 3.0 mi ENE 15.0 mph - 0.31 in Rain Rain
10:13 AM 46.0 °F 39.9 °F 44.1 °F 93% 29.85 in 4.0 mi ENE 13.8 mph - 0.07 in Rain Rain
10:53 AM 46.9 °F - 44.1 °F 90% 29.82 in 5.0 mi ENE 13.8 mph - 0.13 in Rain Light Rain
11:08 AM 46.9 °F - 45.0 °F 93% 29.78 in 3.0 mi ENE 12.7 mph - 0.02 in Rain Rain
11:11 AM 46.9 °F - 45.0 °F 93% 29.78 in 2.5 mi ENE 13.8 mph - 0.02 in Rain Rain
11:30 AM 46.9 °F - 45.0 °F 93% 29.79 in 5.0 mi NE 12.7 mph - 0.04 in Rain Light Rain
11:53 AM 48.0 °F - 45.0 °F 89% 29.79 in 9.0 mi NE 10.4 mph - 0.04 in Rain Light Rain
12:11 PM 48.0 °F - 45.0 °F 89% 29.77 in 3.0 mi ENE 6.9 mph - 0.05 in Rain Heavy Rain
12:19 PM 48.0 °F - 45.0 °F 89% 29.77 in 2.5 mi East 5.8 mph - 0.09 in Rain Rain
12:32 PM 48.0 °F - 46.0 °F 93% 29.77 in 3.0 mi NNE 8.1 mph - 0.11 in Rain Rain
12:53 PM 48.0 °F - 46.0 °F 93% 29.75 in 7.0 mi ENE 11.5 mph - 0.12 in Rain Light Rain
1:02 PM 48.0 °F - 46.0 °F 93% 29.74 in 10.0 mi NE 10.4 mph - 0.00 in   Overcast
1:53 PM 48.9 °F - 46.0 °F 90% 29.72 in 10.0 mi ENE 10.4 mph - 0.00 in   Overcast
2:53 PM 50.0 °F - 46.9 °F 89% 29.69 in 5.0 mi East 9.2 mph - 0.02 in Rain Light Rain
3:53 PM 50.0 °F - 48.0 °F 93% 29.68 in 5.0 mi ENE 6.9 mph - 0.01 in Rain Light Rain
4:13 PM 50.0 °F - 48.0 °F 93% 29.69 in 2.5 mi NNE 3.5 mph - 0.02 in Rain Light Rain
4:24 PM 50.0 °F - 48.0 °F 93% 29.69 in 1.8 mi NE 3.5 mph - 0.04 in Rain Rain
4:32 PM 50.0 °F - 48.0 °F 93% 29.69 in 3.0 mi ENE 4.6 mph - 0.04 in Rain Light Rain
4:47 PM 50.0 °F - 48.2 °F 94% 29.70 in 2.5 mi Calm Calm - 0.05 in Rain Light Rain
4:53 PM 50.0 °F - 48.0 °F 93% 29.71 in 1.8 mi Calm Calm - 0.06 in Rain Light Rain
5:03 PM 50.0 °F - 48.9 °F 96% 29.71 in 2.5 mi Calm Calm - 0.01 in Rain Light Rain
5:10 PM 50.0 °F - 48.9 °F 96% 29.71 in 5.0 mi Calm Calm - 0.01 in Rain Light Rain
5:15 PM 51.1 °F - 48.9 °F 92% 29.71 in 9.0 mi Calm Calm - 0.01 in Rain Light Rain
5:34 PM 53.1 °F - 51.1 °F 93% 29.71 in 7.0 mi SSW 11.5 mph - 0.01 in   Overcast
5:53 PM 54.0 °F - 52.0 °F 93% 29.72 in 7.0 mi SSW 10.4 mph - 0.01 in Rain Light Rain
6:48 PM 55.4 °F - 51.8 °F 88% 29.74 in 10.0 mi SW 12.7 mph - 0.00 in   Overcast
6:53 PM 55.0 °F - 51.1 °F 86% 29.75 in 10.0 mi SW 10.4 mph - 0.00 in   Overcast
7:42 PM 55.0 °F - 51.1 °F 86% 29.76 in 10.0 mi SW 13.8 mph - N/A   Overcast
7:53 PM 54.0 °F - 51.1 °F 90% 29.77 in 10.0 mi SW 11.5 mph - N/A   Overcast
8:53 PM 54.0 °F - 51.1 °F 90% 29.79 in 10.0 mi SW 8.1 mph - N/A   Overcast
9:53 PM 55.0 °F - 52.0 °F 89% 29.81 in 10.0 mi SW 10.4 mph - N/A   Overcast
10:53 PM 54.0 °F - 51.1 °F 90% 29.84 in 10.0 mi SW 10.4 mph - N/A   Overcast
11:03 PM 54.0 °F - 51.1 °F 90% 29.84 in 10.0 mi SW 10.4 mph - N/A   Overcast
11:13 PM 55.0 °F - 52.0 °F 89% 29.84 in 10.0 mi SW 11.5 mph - N/A   Overcast
11:27 PM 55.0 °F - 52.0 °F 89% 29.85 in 10.0 mi SW 10.4 mph - N/A   Overcast
11:53 PM 55.0 °F - 52.0 °F 89% 29.86 in 10.0 mi WSW 9.2 mph - N/A   Overcast